RH
41 40 14 20 29 31 43 46 43 49 47 40 35 34 35 36 34 33 34 31 28 27 27 27 16 7 4 3 3 3 3 3 2 3 3 3 4 5 5 6 6 6 7 7 7 7 7 8 8
38 45 16 22 33 44 40 44 48 46 46 44 44 40 38 36 35 36 37 32 30 30 29 30 26 12 4 3 3 3 3 3 3 3 4 4 5 6 6 7 7 7 8 7 7 8 8 9 8
39 46 21 22 32 38 38 48 49 46 44 44 44 43 41 37 37 37 36 33 32 31 31 32 35 23 8 3 3 4 5 5 5 4 4 5 5 6 6 7 7 7 8 9 8 9 9 8 8
42 44 35 18 35 40 35 46 48 45 46 44 44 42 40 39 38 38 36 36 36 34 32 32 36 36 16 5 3 4 5 5 5 5 5 5 5 7 7 6 7 9 9 9 9 9 8 8 10
45 45 46 25 18 33 41 39 36 42 46 44 42 39 39 40 40 41 38 37 36 38 36 33 34 40 35 15 5 3 3 4 5 5 5 5 5 6 6 6 7 8 9 9 10 9 8 10 11
49 48 50 51 28 19 32 38 38 37 45 47 45 39 38 39 39 40 39 39 38 40 40 36 35 35 39 38 21 8 4 3 3 3 4 5 5 6 6 6 7 8 8 10 10 8 9 10 11
51 52 52 53 44 18 26 44 41 35 40 44 44 40 39 39 39 38 38 38 39 41 41 42 40 38 37 36 37 32 20 9 6 5 4 4 4 5 5 6 8 8 10 10 10 9 10 11 12
58 57 55 54 50 23 22 38 46 40 39 41 42 42 41 39 38 38 36 36 39 41 42 42 43 42 41 41 39 35 32 28 20 10 7 8 8 8 8 9 10 11 12 12 11 12 12 12 12
63 64 57 55 53 41 25 30 44 45 41 40 44 43 41 37 36 37 37 38 40 42 42 43 43 43 42 41 42 42 38 32 28 25 17 10 10 12 13 14 14 15 14 14 12 13 14 14 14
66 63 55 53 58 56 36 26 37 44 43 43 44 43 40 41 40 40 39 39 41 41 42 42 42 42 41 40 40 42 42 39 32 29 28 22 15 14 16 18 19 20 21 20 19 17 15 16 16
69 67 53 52 61 64 40 21 26 41 44 44 44 43 42 41 40 40 41 41 42 42 43 42 42 40 39 39 40 40 41 43 39 36 34 33 30 25 21 18 17 16 16 18 20 19 16 16 17
72 66 56 53 60 65 51 37 20 28 38 44 44 43 42 39 41 42 43 43 43 43 43 42 42 41 39 40 40 40 42 45 46 44 41 42 40 39 39 40 42 39 32 26 24 24 22 19 17
77 67 59 59 61 62 64 46 33 18 27 35 38 39 40 38 40 42 43 43 43 42 42 42 40 40 38 30 22 30 42 47 49 47 46 48 49 49 49 48 48 51 53 54 54 53 50 44 42
78 68 62 66 58 64 63 52 62 16 15 23 26 26 27 36 37 41 42 41 40 40 39 38 37 34 26 16 18 18 29 46 50 50 47 46 48 50 52 53 54 54 55 54 53 52 50 49 50
87 81 78 62 55 56 61 52 26 20 16 14 17 15 14 27 34 38 38 34 37 40 39 38 36 31 23 23 25 22 20 26 38 50 51 46 44 45 47 50 52 54 54 53 51 50 50 49 49
92 91 88 53 58 59 56 34 16 26 14 21 30 21 21 28 33 35 30 31 34 37 36 35 32 22 23 27 27 28 23 23 27 31 40 51 53 48 45 45 46 46 46 46 47 49 51 50 48
87 85 82 68 61 49 38 24 26 22 27 36 38 34 27 30 33 29 31 29 28 27 26 20 19 23 26 25 24 24 24 28 32 35 38 43 42 41 44 45 45 44 44 43 42 42 48 45 42
77 80 77 72 63 45 39 31 27 36 38 38 37 38 37 32 32 31 30 27 26 21 22 27 29 29 27 26 24 23 24 27 30 30 29 28 29 30 30 34 39 43 44 43 44 44 46 44 42
83 83 76 67 58 47 39 36 28 32 36 32 32 34 37 33 31 30 28 29 24 24 27 28 28 27 26 26 28 30 31 32 31 31 31 32 34 36 38 38 40 45 46 46 46 45 44 43 44
86 93 86 68 65 50 44 38 31 31 30 27 29 31 32 33 31 31 32 26 28 28 30 29 28 28 31 30 28 27 25 24 24 24 26 28 31 33 33 32 33 33 33 31 31 31 31 31 32
97 97 83 75 68 63 45 37 29 30 30 31 30 33 35 35 32 32 28 28 30 31 30 30 30 31 32 30 29 28 26 25 24 24 26 30 32 35 37 37 38 38 39 40 40 42 43 43 44
96 77 80 80 84 56 50 54 40 25 31 30 34 35 34 33 33 28 28 31 32 34 32 32 32 33 31 28 25 28 34 33 32 31 32 33 34 34 35 36 38 38 39 40 40 40 41 41 41
80 67 86 88 67 55 52 50 38 28 25 30 29 35 32 32 32 31 32 33 36 34 35 36 34 32 30 31 36 39 40 40 38 38 39 40 42 43 44 46 48 50 51 51 50 49 47 46 44
82 96 86 70 55 61 48 48 35 26 33 32 32 35 35 35 32 35 35 35 34 37 37 36 36 36 37 41 43 44 45 46 47 47 48 49 51 54 57 58 58 57 56 54 53 52 52 52 52
99 96 83 64 67 71 43 46 34 22 32 31 33 35 36 37 34 36 35 34 38 37 40 41 42 47 49 47 48 50 52 53 54 56 57 58 59 59 58 58 56 55 55 54 52 50 50 51 53
99 96 58 71 75 62 49 46 26 27 27 29 29 36 38 39 35 36 34 38 39 42 44 48 53 53 52 51 51 52 54 57 59 62 63 64 64 63 61 59 57 56 54 51 48 47 47 49 50
98 92 57 57 64 67 52 41 33 30 33 30 31 32 37 40 39 38 37 39 44 45 50 58 56 54 51 50 52 54 57 64 69 70 71 70 66 61 56 55 55 54 53 51 48 46 44 41 38
80 64 60 57 65 68 56 44 40 36 36 33 29 32 38 41 42 38 39 43 44 48 61 62 58 57 56 56 57 58 59 62 66 66 65 62 53 48 51 52 52 52 52 48 40 30 22 16 13
70 60 56 53 54 62 63 39 36 35 35 33 33 38 42 46 40 40 43 45 48 57 66 63 62 62 62 63 63 65 67 67 60 58 55 45 43 46 47 50 54 54 51 40 26 17 15 15 15
55 55 53 50 54 52 49 46 38 34 34 35 39 45 47 42 44 45 44 44 54 64 70 66 65 65 65 64 68 66 60 63 67 58 50 42 50 52 55 57 57 52 41 27 18 17 17 16 15
Wind_Speed
9 13 9 8 8 8 12 5 9 7 5 1 4 6 6 8 10 6 10 11 12 14 15 16 18 18 16 14 11 8 5 4 3 4 5 2 4 3 2 2 3 3 4 5 7 9 9 9 10
9 11 7 8 7 10 9 12 5 8 8 7 5 5 7 8 9 9 11 10 12 13 14 15 18 18 16 13 11 8 7 5 4 4 5 2 2 3 2 2 4 5 6 6 7 9 9 10 10
10 11 8 4 10 9 5 11 5 7 8 7 6 5 6 7 9 9 11 11 13 14 14 15 17 18 18 14 10 7 6 5 5 5 5 2 4 5 4 3 5 6 7 8 8 9 11 11 12
11 12 8 8 7 6 11 10 13 6 7 8 6 6 5 6 7 9 10 12 14 15 15 15 16 17 17 15 10 7 6 6 6 7 7 4 6 6 6 5 6 7 8 9 9 10 11 11 12
13 13 8 7 10 8 4 8 14 12 9 7 5 6 5 7 8 8 8 12 15 16 17 16 16 16 16 16 14 9 7 6 6 7 7 8 7 9 9 8 9 9 10 10 10 10 10 10 12
15 14 13 12 10 9 5 6 10 13 12 8 9 7 6 5 8 9 8 12 15 15 16 15 15 16 15 15 15 14 11 9 9 9 9 11 10 10 11 10 10 11 11 10 10 10 11 11 12
16 15 16 14 14 9 8 4 7 14 16 11 10 10 9 6 8 6 10 13 14 14 14 15 15 15 15 15 14 14 13 12 10 10 9 11 11 11 13 12 11 11 10 10 10 11 12 13 14
19 18 18 16 14 11 10 8 6 9 14 13 11 12 10 8 9 9 11 14 13 13 13 14 14 14 15 14 14 13 12 12 12 11 10 9 9 9 10 9 9 9 9 10 11 11 12 13 14
19 19 21 17 14 12 9 13 9 10 16 17 14 13 13 12 11 12 13 14 13 12 14 14 15 15 15 15 15 14 13 13 12 11 10 9 8 8 8 8 8 9 10 11 12 13 14 14 15
22 24 22 16 12 16 14 16 15 15 17 15 16 17 15 15 15 15 17 15 10 12 14 14 15 15 15 15 15 15 14 13 13 11 10 10 8 8 8 9 10 11 12 14 15 15 16 17 16
28 30 21 16 13 17 17 16 20 21 19 14 18 18 17 15 16 14 14 11 11 14 14 15 15 15 15 16 15 15 14 12 12 11 10 9 8 8 8 10 11 13 15 16 17 17 18 18 20
29 26 23 17 13 18 18 20 22 28 23 18 18 20 20 19 17 14 13 14 15 16 16 17 18 16 17 18 17 16 14 11 10 10 10 9 8 8 7 7 8 9 10 12 13 14 15 16 18
31 27 22 18 17 18 21 21 22 33 25 21 22 24 23 20 18 19 17 18 19 17 17 18 18 16 17 18 18 16 14 11 9 8 10 9 9 9 9 9 9 11 13 14 14 15 16 17 19
30 25 22 23 21 21 22 24 27 26 26 24 28 29 29 29 22 19 19 16 18 16 14 15 14 14 15 15 13 12 12 13 12 11 13 12 12 12 13 13 13 13 17 18 20 22 24 25 26
25 25 24 25 24 21 24 33 26 18 19 26 30 33 28 27 24 22 20 18 18 18 18 17 18 17 15 13 14 12 11 12 13 14 16 17 17 18 20 21 21 21 24 26 28 29 31 32 33
20 25 27 26 19 18 21 32 19 10 19 19 19 20 19 20 21 20 18 17 17 18 18 18 18 16 14 15 15 14 13 12 13 14 17 20 22 24 26 27 26 28 30 32 33 33 34 33 34
18 20 18 16 10 14 16 27 6 10 14 12 11 9 15 19 20 18 16 15 15 16 16 14 13 12 14 14 14 14 14 13 12 13 16 19 23 26 29 29 28 29 29 29 32 33 36 35 36
23 20 17 20 9 14 18 24 9 11 13 12 12 11 12 16 17 16 15 15 13 11 7 9 11 12 13 13 13 12 12 12 13 15 16 18 21 24 27 29 30 30 31 32 34 35 36 39 40
19 20 16 12 10 18 15 21 18 15 16 16 14 16 18 18 17 16 11 10 8 8 9 10 11 11 11 10 8 9 10 12 15 17 18 19 21 23 25 27 29 32 34 35 37 39 40 40 43
23 16 21 19 16 17 18 21 19 17 19 18 16 16 17 19 16 10 10 8 6 8 9 9 9 9 8 9 10 12 15 16 17 19 21 23 25 26 28 30 32 33 35 36 37 39 42 42 41
32 28 19 19 17 22 24 28 19 11 18 23 17 18 16 14 11 10 7 6 6 7 7 7 8 10 11 13 15 18 20 20 20 21 23 25 27 29 30 32 33 35 37 39 40 42 43 46 44
33 25 21 17 18 14 12 11 29 24 18 14 16 16 13 12 11 8 6 5 5 6 8 11 13 14 17 19 22 22 20 19 19 20 22 24 26 28 31 33 35 37 39 40 42 43 45 48 50
30 23 21 20 19 20 22 14 9 16 16 14 16 14 11 10 9 8 6 5 5 9 11 13 16 19 22 24 24 22 20 20 20 22 23 25 28 30 32 34 37 39 41 42 45 45 46 48 51
28 18 6 11 13 7 20 18 15 8 6 12 17 15 11 10 10 8 5 4 6 10 13 17 20 23 25 24 22 20 20 20 21 22 23 25 28 31 34 37 39 42 44 45 47 47 48 49 51
30 18 2 3 4 6 6 9 22 8 10 11 9 16 13 12 12 8 4 6 8 12 16 21 23 23 23 21 21 21 22 22 23 25 28 30 33 36 38 41 43 45 46 47 48 49 50 51 53
25 28 8 6 4 4 8 9 5 5 9 13 12 14 15 12 10 6 7 6 10 15 20 21 21 22 22 22 23 24 26 27 29 31 33 36 40 43 45 45 46 46 47 49 50 51 53 54 55
21 34 22 2 3 1 6 10 14 14 10 7 13 15 16 10 8 8 8 8 14 19 20 20 21 21 23 24 26 27 29 30 30 33 38 41 44 47 49 48 48 48 49 50 50 51 51 52 53
25 30 18 15 3 4 4 8 11 5 3 6 14 16 16 12 9 8 8 12 17 21 18 20 21 23 26 28 30 31 32 32 34 38 41 45 50 51 50 50 51 50 49 48 47 47 47 49 49
30 32 22 12 9 4 1 3 4 6 6 5 9 12 12 9 8 9 12 20 23 19 18 21 24 27 30 32 34 34 34 35 39 43 50 56 53 50 50 49 48 47 47 47 48 48 49 51 51
30 27 31 17 6 9 5 13 17 10 5 13 13 12 9 8 11 12 19 23 22 17 21 25 28 31 34 36 38 38 38 40 43 49 59 50 47 47 47 46 46 47 48 49 50 51 52 54 55
Wind_Direction
328 334 314 213 202 207 217 213 219 235 293 291 270 298 311 317 324 329 333 345 353 360 3 4 4 2 358 353 350 350 347 336 300 282 275 251 255 264 266 335 329 318 337 333 318 313 310 307 308
311 326 309 213 224 212 212 206 200 229 255 267 267 294 304 306 320 331 341 351 0 3 5 4 6 7 7 4 4 8 14 5 337 316 295 262 269 251 268 298 316 324 327 323 319 310 313 307 310
299 315 317 217 233 227 217 185 232 214 233 244 246 282 299 297 319 335 347 0 6 6 6 7 6 8 13 10 6 4 10 7 350 330 319 336 284 266 276 300 312 320 323 320 318 316 312 317 316
287 299 310 247 245 236 228 206 239 243 215 220 243 271 282 295 315 336 350 8 9 10 9 9 9 11 13 14 5 353 348 352 348 338 321 320 287 287 290 298 305 309 312 317 317 317 313 316 307
278 288 294 296 273 249 244 254 248 246 225 224 231 262 271 279 303 323 339 359 359 3 11 12 11 11 15 17 13 359 341 333 331 326 316 298 299 294 299 301 304 311 310 312 313 311 306 304 299
271 278 281 295 293 265 256 256 244 236 224 239 258 252 259 290 309 311 316 343 351 354 4 10 12 13 14 18 18 14 0 343 329 318 311 305 302 300 298 302 304 301 301 304 308 303 298 293 292
256 268 273 285 295 269 237 246 244 229 230 233 249 251 260 275 296 302 314 323 339 346 357 360 4 7 11 13 15 15 13 7 355 341 323 307 300 302 295 296 299 298 304 310 311 303 300 291 286
252 261 266 275 287 280 243 239 238 228 224 220 231 248 259 267 283 288 301 315 326 332 345 350 352 354 357 359 2 6 7 3 2 356 345 327 320 313 308 311 306 306 312 312 305 302 295 285 281
244 249 256 264 280 283 270 240 231 225 212 220 221 239 246 257 264 279 290 303 315 318 333 338 340 345 345 343 345 348 349 351 352 349 342 333 323 323 318 316 311 312 311 303 293 291 287 282 279
238 246 255 262 279 288 276 254 240 228 220 213 220 237 247 257 267 275 286 288 303 307 323 323 326 332 331 328 330 330 332 336 338 337 336 328 321 312 302 294 290 291 291 290 290 291 289 286 284
243 247 252 258 277 287 281 252 254 240 223 223 231 242 254 267 277 273 277 282 288 296 307 306 307 312 313 311 314 313 315 322 326 334 332 324 316 304 294 291 296 296 294 294 295 294 291 286 281
242 247 250 252 267 281 284 275 255 247 240 233 243 252 260 269 265 266 270 268 274 287 291 290 296 301 300 303 300 296 296 301 314 324 327 321 316 309 309 316 321 319 315 309 306 303 298 293 288
241 247 250 260 267 271 274 275 279 246 247 248 253 256 262 266 266 260 266 274 281 285 287 293 304 303 303 302 296 286 278 283 289 302 302 313 317 317 314 314 311 309 309 310 310 310 307 303 296
246 252 255 256 257 268 280 275 275 247 254 248 255 253 256 260 264 263 268 276 283 290 293 300 298 300 303 305 309 303 281 269 274 274 278 284 291 293 290 287 285 288 288 288 291 292 294 295 295
244 253 255 254 258 270 286 276 270 287 257 248 255 256 259 257 258 263 268 275 281 286 291 290 292 296 294 295 306 315 302 281 273 269 270 274 274 272 273 273 275 281 285 289 292 294 295 296 296
233 246 258 254 268 276 284 280 315 237 235 246 264 270 261 254 256 261 268 276 280 282 281 281 283 283 281 289 302 309 311 305 289 276 269 268 270 272 273 276 282 284 285 288 290 289 288 288 289
223 235 248 268 250 272 280 278 315 234 246 243 270 275 250 248 255 263 270 282 285 282 280 277 278 279 281 286 293 299 301 301 297 290 282 277 277 279 281 285 286 287 289 291 291 288 287 287 289
208 220 235 247 263 279 275 275 265 247 252 256 268 259 250 247 259 272 282 285 290 281 268 280 285 288 294 301 305 303 303 300 301 301 301 300 297 293 293 292 290 287 289 291 292 291 289 291 292
223 231 242 248 261 296 291 274 285 241 242 252 257 259 257 268 272 281 277 283 270 274 291 293 300 311 321 323 335 338 331 323 318 317 312 309 304 303 302 302 299 294 294 295 296 296 295 293 294
212 223 234 247 260 300 294 278 270 265 254 252 260 249 251 257 267 264 281 272 281 293 300 316 328 336 337 339 345 342 334 325 317 311 308 307 308 307 306 306 305 304 303 302 301 301 300 300 300
224 232 238 254 270 283 300 297 288 282 271 255 260 232 241 253 253 273 262 261 288 315 330 329 335 336 331 327 328 329 325 321 314 310 308 308 308 308 307 306 306 305 305 304 303 302 301 300 299
221 231 249 251 282 288 303 290 286 291 282 257 234 233 241 242 255 240 239 268 312 335 336 339 337 335 331 330 330 328 325 321 316 312 310 309 308 308 308 308 307 305 303 303 302 300 300 299 299
224 234 239 262 272 286 285 281 286 288 288 234 224 231 226 236 220 220 240 290 335 338 338 337 336 334 332 330 329 329 328 325 321 319 316 314 313 312 310 309 308 307 306 305 304 303 301 300 298
220 227 246 251 267 269 282 241 285 302 337 242 227 227 221 221 216 224 261 321 327 331 337 336 333 330 330 331 332 331 327 323 318 313 309 306 305 304 304 304 303 302 301 300 299 297 297 297 295
213 211 249 237 226 230 257 253 256 264 281 295 251 230 222 219 218 237 287 301 324 338 333 330 330 330 332 334 331 329 327 322 317 313 309 306 305 305 305 305 304 303 302 301 300 299 298 296 294
210 197 182 195 202 257 246 241 270 280 270 260 219 219 225 226 229 253 271 289 326 329 327 324 324 326 329 329 330 328 325 321 317 314 312 311 311 310 310 310 308 306 305 303 302 300 298 296 294
205 205 211 309 282 298 238 268 282 274 276 256 209 202 212 224 229 247 261 298 320 322 317 315 318 324 327 329 328 328 325 320 315 312 312 312 312 312 313 313 311 309 308 306 304 302 300 299 299
221 205 208 221 224 247 270 272 254 291 301 259 214 201 205 217 236 252 274 303 313 314 307 309 317 320 322 326 328 327 323 319 317 316 316 316 316 316 316 315 313 312 310 309 308 306 305 304 304
201 200 207 204 221 176 299 280 311 308 251 157 163 188 202 223 246 268 287 308 308 303 300 304 310 318 324 325 323 321 319 317 320 321 322 322 319 317 315 313 313 312 312 312 310 310 309 308 307
210 210 213 213 205 225 253 268 291 316 186 158 171 179 204 240 262 275 302 301 299 294 292 298 311 318 319 320 320 319 318 319 320 323 324 319 317 316 316 315 315 314 313 313 312 311 310 309 307